Location: Kirkland Lake
(48.1510°N, 80.0330°W)
Time: 08:04:28
(UTC-04:00)

ISS - Pass Details

Date: 23 April 2026
Orbit: 414 x 424 km, 51.6° (Epoch: 18 May)

Event Time Altitude Azimuth Distance (km) Brightness Sun altitude
Exits shadow 04:55:09 23° 225° (SW) 952 -2.6 -12.6°
Maximum altitude 04:57:04 60° 152° (SSE) 484 -3.5 -12.4°
Drops below altitude 10° 05:00:25 10° 71° (ENE) 1,507 0.4 -11.9°
Sets 05:02:32 0° 68° (ENE) 2,376 1.9 -11.6°
